Year,Month,Day,Hour,Minute,Value (Times are PST for temperature in C)
2014,08,11,00,00,21.50
2014,08,11,00,01,21.40
2014,08,11,00,02,21.40
2014,08,11,00,03,21.40
2014,08,11,00,04,21.40
2014,08,11,00,05,21.30
2014,08,11,00,06,21.30
2014,08,11,00,07,21.30
2014,08,11,00,08,21.30
2014,08,11,00,09,21.20
2014,08,11,00,10,21.20
2014,08,11,00,11,21.20
2014,08,11,00,12,21.20
2014,08,11,00,13,21.10
2014,08,11,00,14,21.10
2014,08,11,00,15,21.10
2014,08,11,00,16,21.10
2014,08,11,00,18,21.00
2014,08,11,00,20,20.90
2014,08,11,00,21,20.90
2014,08,11,00,22,20.90
2014,08,11,00,23,20.90
2014,08,11,00,24,20.80
2014,08,11,00,25,20.80
2014,08,11,00,26,20.80
2014,08,11,00,27,20.80
2014,08,11,00,28,20.70
2014,08,11,00,29,20.70
2014,08,11,00,30,20.70
2014,08,11,00,31,20.70
2014,08,11,00,32,20.60
2014,08,11,00,33,20.60
2014,08,11,00,34,20.60
2014,08,11,00,35,20.60
2014,08,11,00,36,20.50
2014,08,11,00,37,20.40
2014,08,11,00,38,20.40
2014,08,11,00,39,20.40
2014,08,11,00,40,20.30
2014,08,11,00,41,20.30
2014,08,11,00,42,20.30
2014,08,11,00,43,20.30
2014,08,11,00,44,20.20
2014,08,11,00,45,20.20
2014,08,11,00,47,20.20
2014,08,11,00,48,20.10
2014,08,11,00,49,20.10
2014,08,11,00,50,20.10
2014,08,11,00,51,20.10
2014,08,11,00,52,20.00
2014,08,11,00,53,19.90
2014,08,11,00,54,19.90
2014,08,11,00,55,19.90
2014,08,11,00,56,19.90
2014,08,11,00,57,19.80
2014,08,11,00,58,19.80
2014,08,11,00,59,19.80
2014,08,11,01,00,19.80
2014,08,11,01,01,19.80
2014,08,11,01,02,19.80
2014,08,11,01,03,19.80
2014,08,11,01,05,19.70
2014,08,11,01,06,19.70
2014,08,11,01,07,19.70
2014,08,11,01,08,19.70
2014,08,11,01,09,19.70
2014,08,11,01,10,19.70
2014,08,11,01,11,19.70
2014,08,11,01,12,19.60
2014,08,11,01,13,19.60
2014,08,11,01,14,19.60
2014,08,11,01,15,19.60
2014,08,11,01,16,19.60
2014,08,11,01,17,19.60
2014,08,11,01,18,19.60
2014,08,11,01,19,19.60
2014,08,11,01,20,19.60
2014,08,11,01,21,19.50
2014,08,11,01,22,19.50
2014,08,11,01,23,19.40
2014,08,11,01,24,19.40
2014,08,11,01,25,19.40
2014,08,11,01,26,19.30
2014,08,11,01,27,19.30
2014,08,11,01,28,19.30
2014,08,11,01,29,19.20
2014,08,11,01,30,19.20
2014,08,11,01,31,19.20
2014,08,11,01,32,19.20
2014,08,11,01,33,19.20
2014,08,11,01,34,19.10
2014,08,11,01,35,19.10
2014,08,11,01,36,19.10
2014,08,11,01,37,19.10
2014,08,11,01,38,19.00
2014,08,11,01,39,19.00
2014,08,11,01,40,18.90
2014,08,11,01,41,18.90
2014,08,11,01,42,18.90
2014,08,11,01,43,18.90
2014,08,11,01,44,18.80
2014,08,11,01,45,18.80
2014,08,11,01,46,18.80
2014,08,11,01,47,18.80
2014,08,11,01,48,18.80
2014,08,11,01,49,18.70
2014,08,11,01,50,18.70
2014,08,11,01,51,18.70
2014,08,11,01,52,18.70
2014,08,11,01,53,18.60
2014,08,11,01,54,18.60
2014,08,11,01,55,18.60
2014,08,11,01,56,18.60
2014,08,11,01,57,18.60
2014,08,11,01,58,18.60
2014,08,11,01,59,18.60
2014,08,11,02,01,18.50
2014,08,11,02,02,18.50
2014,08,11,02,03,18.40
2014,08,11,02,04,18.40
2014,08,11,02,05,18.40
2014,08,11,02,06,18.30
2014,08,11,02,07,18.30
2014,08,11,02,08,18.30
2014,08,11,02,09,18.30
2014,08,11,02,10,18.20
2014,08,11,02,11,18.20
2014,08,11,02,12,18.20
2014,08,11,02,13,18.10
2014,08,11,02,14,18.10
2014,08,11,02,15,18.10
2014,08,11,02,16,18.10
2014,08,11,02,17,18.00
2014,08,11,02,18,18.00
2014,08,11,02,19,17.90
2014,08,11,02,20,17.90
2014,08,11,02,21,17.90
2014,08,11,02,22,17.80
2014,08,11,02,23,17.80
2014,08,11,02,24,17.80
2014,08,11,02,25,17.80
2014,08,11,02,26,17.70
2014,08,11,02,27,17.70
2014,08,11,02,28,17.70
2014,08,11,02,29,17.70
2014,08,11,02,30,17.60
2014,08,11,02,31,17.60
2014,08,11,02,32,17.60
2014,08,11,02,33,17.60
2014,08,11,02,34,17.60
2014,08,11,02,35,17.60
2014,08,11,02,36,17.60
2014,08,11,02,37,17.60
2014,08,11,02,38,17.60
2014,08,11,02,39,17.50
2014,08,11,02,40,17.50
2014,08,11,02,41,17.50
2014,08,11,02,42,17.50
2014,08,11,02,43,17.50
2014,08,11,02,44,17.50
2014,08,11,02,45,17.40
2014,08,11,02,46,17.40
2014,08,11,02,47,17.40
2014,08,11,02,48,17.40
2014,08,11,02,49,17.40
2014,08,11,02,50,17.40
2014,08,11,02,51,17.40
2014,08,11,02,52,17.40
2014,08,11,02,53,17.40
2014,08,11,02,54,17.40
2014,08,11,02,55,17.30
2014,08,11,02,56,17.30
2014,08,11,02,57,17.30
2014,08,11,02,58,17.30
2014,08,11,03,00,17.30
2014,08,11,03,01,17.20
2014,08,11,03,03,17.20
2014,08,11,03,04,17.20
2014,08,11,03,05,17.20
2014,08,11,03,06,17.10
2014,08,11,03,07,17.10
2014,08,11,03,08,17.10
2014,08,11,03,09,17.10
2014,08,11,03,10,17.10
2014,08,11,03,11,17.10
2014,08,11,03,12,17.10
2014,08,11,03,13,17.10
2014,08,11,03,14,17.10
2014,08,11,03,15,17.00
2014,08,11,03,16,17.00
2014,08,11,03,17,17.00
2014,08,11,03,18,16.90
2014,08,11,03,19,16.90
2014,08,11,03,20,16.90
2014,08,11,03,21,16.90
2014,08,11,03,22,16.90
2014,08,11,03,23,16.90
2014,08,11,03,24,16.90
2014,08,11,03,25,16.90
2014,08,11,03,26,16.80
2014,08,11,03,27,16.80
2014,08,11,03,28,16.80
2014,08,11,03,29,16.80
2014,08,11,03,30,16.80
2014,08,11,03,31,16.80
2014,08,11,03,32,16.80
2014,08,11,03,33,16.70
2014,08,11,03,34,16.70
2014,08,11,03,35,16.70
2014,08,11,03,36,16.70
2014,08,11,03,37,16.70
2014,08,11,03,38,16.70
2014,08,11,03,39,16.70
2014,08,11,03,40,16.70
2014,08,11,03,41,16.70
2014,08,11,03,42,16.70
2014,08,11,03,43,16.70
2014,08,11,03,44,16.70
2014,08,11,03,45,16.70
2014,08,11,03,46,16.70
2014,08,11,03,47,16.70
2014,08,11,03,48,16.70
2014,08,11,03,49,16.70
2014,08,11,03,50,16.70
2014,08,11,03,51,16.60
2014,08,11,03,52,16.60
2014,08,11,03,53,16.60
2014,08,11,03,54,16.60
2014,08,11,03,55,16.50
2014,08,11,03,57,16.40
2014,08,11,03,58,16.40
2014,08,11,03,59,16.40
2014,08,11,04,00,16.40
2014,08,11,04,01,16.30
2014,08,11,04,02,16.30
2014,08,11,04,03,16.30
2014,08,11,04,04,16.30
2014,08,11,04,05,16.30
2014,08,11,04,06,16.20
2014,08,11,04,07,16.20
2014,08,11,04,08,16.20
2014,08,11,04,09,16.20
2014,08,11,04,10,16.20
2014,08,11,04,11,16.20
2014,08,11,04,12,16.10
2014,08,11,04,13,16.10
2014,08,11,04,14,16.10
2014,08,11,04,15,16.10
2014,08,11,04,16,16.10
2014,08,11,04,17,16.00
2014,08,11,04,18,16.00
2014,08,11,04,19,16.00
2014,08,11,04,20,16.00
2014,08,11,04,21,16.00
2014,08,11,04,22,16.00
2014,08,11,04,23,15.90
2014,08,11,04,24,15.90
2014,08,11,04,25,15.90
2014,08,11,04,26,15.90
2014,08,11,04,28,15.90
2014,08,11,04,29,15.90
2014,08,11,04,30,15.90
2014,08,11,04,31,15.90
2014,08,11,04,32,15.90
2014,08,11,04,33,15.90
2014,08,11,04,34,15.80
2014,08,11,04,35,15.80
2014,08,11,04,36,15.80
2014,08,11,04,37,15.80
2014,08,11,04,38,15.80
2014,08,11,04,39,15.80
2014,08,11,04,40,15.80
2014,08,11,04,41,15.80
2014,08,11,04,42,15.70
2014,08,11,04,43,15.70
2014,08,11,04,44,15.70
2014,08,11,04,45,15.70
2014,08,11,04,46,15.70
2014,08,11,04,47,15.70
2014,08,11,04,48,15.70
2014,08,11,04,49,15.70
2014,08,11,04,50,15.60
2014,08,11,04,51,15.60
2014,08,11,04,52,15.60
2014,08,11,04,53,15.60
2014,08,11,04,54,15.60
2014,08,11,04,55,15.60
2014,08,11,04,56,15.60
2014,08,11,04,57,15.50
2014,08,11,04,58,15.50
2014,08,11,04,59,15.50
2014,08,11,05,00,15.50
2014,08,11,05,01,15.40
2014,08,11,05,02,15.40
2014,08,11,05,03,15.40
2014,08,11,05,04,15.40
2014,08,11,05,05,15.40
2014,08,11,05,06,15.40
2014,08,11,05,07,15.30
2014,08,11,05,08,15.30
2014,08,11,05,09,15.30
2014,08,11,05,10,15.30
2014,08,11,05,11,15.30
2014,08,11,05,12,15.30
2014,08,11,05,13,15.30
2014,08,11,05,14,15.30
2014,08,11,05,15,15.30
2014,08,11,05,16,15.30
2014,08,11,05,17,15.30
2014,08,11,05,18,15.20
2014,08,11,05,19,15.20
2014,08,11,05,20,15.20
2014,08,11,05,21,15.20
2014,08,11,05,22,15.20
2014,08,11,05,23,15.20
2014,08,11,05,24,15.20
2014,08,11,05,25,15.20
2014,08,11,05,26,15.20
2014,08,11,05,27,15.20
2014,08,11,05,28,15.20
2014,08,11,05,29,15.10
2014,08,11,05,30,15.10
2014,08,11,05,31,15.10
2014,08,11,05,32,15.10
2014,08,11,05,33,15.10
2014,08,11,05,34,15.10
2014,08,11,05,35,15.10
2014,08,11,05,36,15.10
2014,08,11,05,37,15.00
2014,08,11,05,38,15.00
2014,08,11,05,39,15.00
2014,08,11,05,40,14.90
2014,08,11,05,41,14.90
2014,08,11,05,42,14.90
2014,08,11,05,43,14.90
2014,08,11,05,44,14.90
2014,08,11,05,45,14.90
2014,08,11,05,46,14.90
2014,08,11,05,47,14.90
2014,08,11,05,48,14.80
2014,08,11,05,49,14.80
2014,08,11,05,50,14.80
2014,08,11,05,51,14.80
2014,08,11,05,52,14.80
2014,08,11,05,53,14.80
2014,08,11,05,54,14.80
2014,08,11,05,55,14.80
2014,08,11,05,56,14.80
2014,08,11,05,57,14.80
2014,08,11,05,58,14.80
2014,08,11,05,59,14.80
2014,08,11,06,00,14.70
2014,08,11,06,01,14.70
2014,08,11,06,02,14.70
2014,08,11,06,03,14.70
2014,08,11,06,04,14.70
2014,08,11,06,05,14.70
2014,08,11,06,06,14.70
2014,08,11,06,07,14.70
2014,08,11,06,08,14.70
2014,08,11,06,09,14.60
2014,08,11,06,10,14.60
2014,08,11,06,11,14.60
2014,08,11,06,12,14.60
2014,08,11,06,13,14.60
2014,08,11,06,14,14.60
2014,08,11,06,15,14.60
2014,08,11,06,17,14.50
2014,08,11,06,18,14.50
2014,08,11,06,19,14.50
2014,08,11,06,20,14.50
2014,08,11,06,21,14.50
2014,08,11,06,22,14.50
2014,08,11,06,23,14.50
2014,08,11,06,24,14.50
2014,08,11,06,25,14.50
2014,08,11,06,26,14.40
2014,08,11,06,27,14.40
2014,08,11,06,28,14.40
2014,08,11,06,29,14.40
2014,08,11,06,30,14.40
2014,08,11,06,31,14.40
2014,08,11,06,32,14.40
2014,08,11,06,33,14.40
2014,08,11,06,34,14.40
2014,08,11,06,35,14.40
2014,08,11,06,36,14.40
2014,08,11,06,37,14.40
2014,08,11,06,38,14.40
2014,08,11,06,39,14.40
2014,08,11,06,40,14.40
2014,08,11,06,41,14.40
2014,08,11,06,42,14.40
2014,08,11,06,43,14.40
2014,08,11,06,44,14.40
2014,08,11,06,45,14.40
2014,08,11,06,46,14.40
2014,08,11,06,47,14.40
2014,08,11,06,48,14.40
2014,08,11,06,49,14.40
2014,08,11,06,50,14.40
2014,08,11,06,51,14.50
2014,08,11,06,52,14.50
2014,08,11,06,53,14.50
2014,08,11,06,54,14.60
2014,08,11,06,55,14.60
2014,08,11,06,56,14.60
2014,08,11,06,57,14.60
2014,08,11,06,58,14.60
2014,08,11,06,59,14.60
2014,08,11,07,00,14.60
2014,08,11,07,01,14.70
2014,08,11,07,02,14.70
2014,08,11,07,03,14.70
2014,08,11,07,04,14.70
2014,08,11,07,05,14.70
2014,08,11,07,06,14.70
2014,08,11,07,07,14.70
2014,08,11,07,08,14.80
2014,08,11,07,09,14.80
2014,08,11,07,10,14.80
2014,08,11,07,11,14.80
2014,08,11,07,12,14.80
2014,08,11,07,13,14.90
2014,08,11,07,14,14.90
2014,08,11,07,15,14.90
2014,08,11,07,16,14.90
2014,08,11,07,17,15.00
2014,08,11,07,18,15.10
2014,08,11,07,19,15.10
2014,08,11,07,20,15.10
2014,08,11,07,21,15.20
2014,08,11,07,22,15.20
2014,08,11,07,23,15.20
2014,08,11,07,24,15.30
2014,08,11,07,25,15.30
2014,08,11,07,26,15.40
2014,08,11,07,27,15.40
2014,08,11,07,28,15.40
2014,08,11,07,29,15.50
2014,08,11,07,30,15.60
2014,08,11,07,31,15.60
2014,08,11,07,32,15.60
2014,08,11,07,33,15.70
2014,08,11,07,34,15.70
2014,08,11,07,35,15.70
2014,08,11,07,36,15.80
2014,08,11,07,37,15.80
2014,08,11,07,38,15.90
2014,08,11,07,39,15.90
2014,08,11,07,40,16.00
2014,08,11,07,41,16.00
2014,08,11,07,42,16.10
2014,08,11,07,43,16.20
2014,08,11,07,44,16.20
2014,08,11,07,45,16.30
2014,08,11,07,46,16.40
2014,08,11,07,47,16.60
2014,08,11,07,48,16.70
2014,08,11,07,49,16.80
2014,08,11,07,50,16.90
2014,08,11,07,51,17.10
2014,08,11,07,52,17.20
2014,08,11,07,53,17.30
2014,08,11,07,54,17.40
2014,08,11,07,55,17.50
2014,08,11,07,56,17.60
2014,08,11,07,57,17.70
2014,08,11,07,58,17.80
2014,08,11,07,59,17.90
2014,08,11,08,00,17.90
2014,08,11,08,01,18.00
2014,08,11,08,02,18.10
2014,08,11,08,04,18.30
2014,08,11,08,05,18.30
2014,08,11,08,06,18.40
2014,08,11,08,07,18.40
2014,08,11,08,08,18.60
2014,08,11,08,09,18.60
2014,08,11,08,10,18.70
2014,08,11,08,11,18.70
2014,08,11,08,12,18.80
2014,08,11,08,13,18.80
2014,08,11,08,14,18.90
2014,08,11,08,15,18.90
2014,08,11,08,16,19.00
2014,08,11,08,17,19.10
2014,08,11,08,18,19.20
2014,08,11,08,19,19.30
2014,08,11,08,20,19.30
2014,08,11,08,21,19.40
2014,08,11,08,22,19.50
2014,08,11,08,23,19.60
2014,08,11,08,24,19.70
2014,08,11,08,25,19.70
2014,08,11,08,26,19.80
2014,08,11,08,27,19.80
2014,08,11,08,28,19.90
2014,08,11,08,29,20.00
2014,08,11,08,30,20.00
2014,08,11,08,31,20.10
2014,08,11,08,32,20.10
2014,08,11,08,33,20.10
2014,08,11,08,34,20.10
2014,08,11,08,35,20.10
2014,08,11,08,36,20.10
2014,08,11,08,37,20.10
2014,08,11,08,38,20.10
2014,08,11,08,39,20.20
2014,08,11,08,40,20.20
2014,08,11,08,41,20.20
2014,08,11,08,42,20.30
2014,08,11,08,43,20.30
2014,08,11,08,44,20.40
2014,08,11,08,45,20.50
2014,08,11,08,46,20.60
2014,08,11,08,47,20.60
2014,08,11,08,48,20.70
2014,08,11,08,49,20.70
2014,08,11,08,50,20.80
2014,08,11,08,51,20.80
2014,08,11,08,52,20.90
2014,08,11,08,53,20.90
2014,08,11,08,54,21.00
2014,08,11,08,55,21.10
2014,08,11,08,56,21.20
2014,08,11,08,57,21.20
2014,08,11,08,58,21.20
2014,08,11,08,59,21.20
2014,08,11,09,00,21.30
2014,08,11,09,01,21.30
2014,08,11,09,02,21.30
2014,08,11,09,03,21.30
2014,08,11,09,04,21.40
2014,08,11,09,05,21.40
2014,08,11,09,06,21.50
2014,08,11,09,07,21.60
2014,08,11,09,08,21.70
2014,08,11,09,09,21.80
2014,08,11,09,10,21.90
2014,08,11,09,11,21.90
2014,08,11,09,12,22.10
2014,08,11,09,13,22.20
2014,08,11,09,14,22.30
2014,08,11,09,15,22.30
2014,08,11,09,16,22.40
2014,08,11,09,17,22.40
2014,08,11,09,18,22.50
2014,08,11,09,19,22.60
2014,08,11,09,20,22.60
2014,08,11,09,21,22.70
2014,08,11,09,22,22.80
2014,08,11,09,23,22.80
2014,08,11,09,24,22.90
2014,08,11,09,25,23.00
2014,08,11,09,26,23.10
2014,08,11,09,27,23.10
2014,08,11,09,28,23.20
2014,08,11,09,29,23.20
2014,08,11,09,30,23.30
2014,08,11,09,31,23.30
2014,08,11,09,32,23.30
2014,08,11,09,33,23.40
2014,08,11,09,34,23.40
2014,08,11,09,35,23.60
2014,08,11,09,36,23.60
2014,08,11,09,37,23.70
2014,08,11,09,38,23.80
2014,08,11,09,39,23.80
2014,08,11,09,40,23.80
2014,08,11,09,41,23.80
2014,08,11,09,42,23.70
2014,08,11,09,43,23.70
2014,08,11,09,44,23.70
2014,08,11,09,45,23.70
2014,08,11,09,46,23.70
2014,08,11,09,47,23.70
2014,08,11,09,48,23.70
2014,08,11,09,49,23.80
2014,08,11,09,50,23.80
2014,08,11,09,51,23.80
2014,08,11,09,52,23.90
2014,08,11,09,53,23.90
2014,08,11,09,54,24.00
2014,08,11,09,55,24.10
2014,08,11,09,56,24.10
2014,08,11,09,57,24.20
2014,08,11,09,58,24.30
2014,08,11,09,59,24.40
2014,08,11,10,00,24.50
2014,08,11,10,01,24.60
2014,08,11,10,02,24.70
2014,08,11,10,03,24.80
2014,08,11,10,04,24.80
2014,08,11,10,06,25.10
2014,08,11,10,07,25.10
2014,08,11,10,08,25.20
2014,08,11,10,09,25.20
2014,08,11,10,10,25.30
2014,08,11,10,11,25.30
2014,08,11,10,12,25.30
2014,08,11,10,13,25.40
2014,08,11,10,14,25.30
2014,08,11,10,15,25.30
2014,08,11,10,16,25.40
2014,08,11,10,17,25.40
2014,08,11,10,18,25.30
2014,08,11,10,19,25.40
2014,08,11,10,20,25.30
2014,08,11,10,21,25.30
2014,08,11,10,22,25.30
2014,08,11,10,23,25.30
2014,08,11,10,25,25.20
2014,08,11,10,26,25.10
2014,08,11,10,27,25.10
2014,08,11,10,28,25.10
2014,08,11,10,29,25.00
2014,08,11,10,30,24.90
2014,08,11,10,31,24.90
2014,08,11,10,32,24.90
2014,08,11,10,33,24.90
2014,08,11,10,34,24.90
2014,08,11,10,35,25.00
2014,08,11,10,36,25.10
2014,08,11,10,37,25.10
2014,08,11,10,38,25.20
2014,08,11,10,39,25.20
2014,08,11,10,40,25.30
2014,08,11,10,41,25.30
2014,08,11,10,42,25.40
2014,08,11,10,43,25.40
2014,08,11,10,44,25.50
2014,08,11,10,45,25.60
2014,08,11,10,46,25.70
2014,08,11,10,47,25.70
2014,08,11,10,48,25.70
2014,08,11,10,49,25.80
2014,08,11,10,50,25.80
2014,08,11,10,51,25.80
2014,08,11,10,52,25.90
2014,08,11,10,53,25.90
2014,08,11,10,54,26.00
2014,08,11,10,55,26.00
2014,08,11,10,56,26.00
2014,08,11,10,57,26.00
2014,08,11,10,58,26.10
2014,08,11,10,59,26.10
2014,08,11,11,00,26.20
2014,08,11,11,01,26.20
2014,08,11,11,02,26.30
2014,08,11,11,03,26.40
2014,08,11,11,04,26.50
2014,08,11,11,05,26.60
2014,08,11,11,06,26.70
2014,08,11,11,07,26.70
2014,08,11,11,08,26.80
2014,08,11,11,09,26.80
2014,08,11,11,10,26.80
2014,08,11,11,11,26.80
2014,08,11,11,12,26.80
2014,08,11,11,13,26.80
2014,08,11,11,14,26.80
2014,08,11,11,15,26.90
2014,08,11,11,17,27.10
2014,08,11,11,18,27.20
2014,08,11,11,19,27.30
2014,08,11,11,20,27.40
2014,08,11,11,21,27.40
2014,08,11,11,22,27.50
2014,08,11,11,23,27.50
2014,08,11,11,24,27.60
2014,08,11,11,25,27.60
2014,08,11,11,26,27.60
2014,08,11,11,27,27.70
2014,08,11,11,28,27.70
2014,08,11,11,29,27.80
2014,08,11,11,30,27.90
2014,08,11,11,31,28.10
2014,08,11,11,32,28.10
2014,08,11,11,33,28.20
2014,08,11,11,34,28.30
2014,08,11,11,36,28.70
2014,08,11,11,37,28.80
2014,08,11,11,38,28.90
2014,08,11,11,39,29.00
2014,08,11,11,40,29.10
2014,08,11,11,41,29.00
2014,08,11,11,42,29.00
2014,08,11,11,43,29.00
2014,08,11,11,44,29.10
2014,08,11,11,45,29.10
2014,08,11,11,46,29.20
2014,08,11,11,48,29.30
2014,08,11,11,49,29.40
2014,08,11,11,50,29.50
2014,08,11,11,51,29.60
2014,08,11,11,52,29.60
2014,08,11,11,53,29.70
2014,08,11,11,54,29.70
2014,08,11,11,55,29.60
2014,08,11,11,56,29.60
2014,08,11,11,57,29.70
2014,08,11,11,58,29.70
2014,08,11,11,59,29.80
2014,08,11,12,00,29.80
2014,08,11,12,01,29.80
2014,08,11,12,02,29.80
2014,08,11,12,03,29.70
2014,08,11,12,04,29.70
2014,08,11,12,05,29.70
2014,08,11,12,06,29.70
2014,08,11,12,07,29.80
2014,08,11,12,08,29.80
2014,08,11,12,09,29.80
2014,08,11,12,10,29.80
2014,08,11,12,11,29.80
2014,08,11,12,12,29.90
2014,08,11,12,13,29.90
2014,08,11,12,14,30.10
2014,08,11,12,15,30.20
2014,08,11,12,17,30.40
2014,08,11,12,18,30.50
2014,08,11,12,19,30.60
2014,08,11,12,20,30.70
2014,08,11,12,21,30.70
2014,08,11,12,22,30.80
2014,08,11,12,23,30.80
2014,08,11,12,24,30.90
2014,08,11,12,25,30.90
2014,08,11,12,26,31.00
2014,08,11,12,28,31.10
2014,08,11,12,29,31.20
2014,08,11,12,30,31.20
2014,08,11,12,31,31.20
2014,08,11,12,32,31.10
2014,08,11,12,33,31.10
2014,08,11,12,34,31.10
2014,08,11,12,35,31.10
2014,08,11,12,36,31.10
2014,08,11,12,37,31.10
2014,08,11,12,38,31.20
2014,08,11,12,39,31.20
2014,08,11,12,40,31.20
2014,08,11,12,41,31.30
2014,08,11,12,42,31.30
2014,08,11,12,43,31.30
2014,08,11,12,44,31.40
2014,08,11,12,45,31.40
2014,08,11,12,46,31.50
2014,08,11,12,47,31.60
2014,08,11,12,48,31.60
2014,08,11,12,49,31.60
2014,08,11,12,50,31.60
2014,08,11,12,51,31.60
2014,08,11,12,52,31.70
2014,08,11,12,53,31.70
2014,08,11,12,54,31.70
2014,08,11,12,55,31.80
2014,08,11,12,56,31.90
2014,08,11,12,58,32.10
2014,08,11,12,59,32.20
2014,08,11,13,00,32.30
2014,08,11,13,01,32.40
2014,08,11,13,02,32.60
2014,08,11,13,03,32.70
2014,08,11,13,04,32.80
2014,08,11,13,05,32.80
2014,08,11,13,06,32.80
2014,08,11,13,07,32.80
2014,08,11,13,08,32.80
2014,08,11,13,09,32.90
2014,08,11,13,11,33.20
2014,08,11,13,12,33.30
2014,08,11,13,13,33.40
2014,08,11,13,14,33.40
2014,08,11,13,15,33.60
2014,08,11,13,16,33.60
2014,08,11,13,17,33.60
2014,08,11,13,18,33.60
2014,08,11,13,19,33.60
2014,08,11,13,20,33.60
2014,08,11,13,21,33.70
2014,08,11,13,22,33.70
2014,08,11,13,23,33.80
2014,08,11,13,24,33.80
2014,08,11,13,25,33.80
2014,08,11,13,26,33.80
2014,08,11,13,27,33.80
2014,08,11,13,28,33.70
2014,08,11,13,29,33.80
2014,08,11,13,30,33.80
2014,08,11,13,31,33.80
2014,08,11,13,32,33.90
2014,08,11,13,33,33.90
2014,08,11,13,34,33.90
2014,08,11,13,35,33.80
2014,08,11,13,36,33.80
2014,08,11,13,37,33.80
2014,08,11,13,38,33.70
2014,08,11,13,39,33.80
2014,08,11,13,40,33.80
2014,08,11,13,41,33.80
2014,08,11,13,43,33.90
2014,08,11,13,44,34.00
2014,08,11,13,45,34.10
2014,08,11,13,46,34.10
2014,08,11,13,47,34.10
2014,08,11,13,48,34.10
2014,08,11,13,49,34.20
2014,08,11,13,50,34.20
2014,08,11,13,51,34.30
2014,08,11,13,52,34.40
2014,08,11,13,53,34.60
2014,08,11,13,55,34.70
2014,08,11,13,56,34.80
2014,08,11,13,57,34.80
2014,08,11,13,58,34.80
2014,08,11,13,59,34.80
2014,08,11,14,00,34.80
2014,08,11,14,01,34.80
2014,08,11,14,02,34.80
2014,08,11,14,03,34.70
2014,08,11,14,04,34.70
2014,08,11,14,05,34.70
2014,08,11,14,06,34.70
2014,08,11,14,07,34.70
2014,08,11,14,09,34.70
2014,08,11,14,10,34.70
2014,08,11,14,11,34.70
2014,08,11,14,12,34.70
2014,08,11,14,13,34.80
2014,08,11,14,14,34.80
2014,08,11,14,15,34.80
2014,08,11,14,16,34.90
2014,08,11,14,17,34.90
2014,08,11,14,18,35.00
2014,08,11,14,19,35.10
2014,08,11,14,20,35.20
2014,08,11,14,21,35.30
2014,08,11,14,22,35.40
2014,08,11,14,23,35.40
2014,08,11,14,24,35.60
2014,08,11,14,25,35.60
2014,08,11,14,26,35.60
2014,08,11,14,27,35.60
2014,08,11,14,28,35.60
2014,08,11,14,29,35.60
2014,08,11,14,30,35.50
2014,08,11,14,31,35.40
2014,08,11,14,32,35.40
2014,08,11,14,33,35.30
2014,08,11,14,34,35.30
2014,08,11,14,35,35.40
2014,08,11,14,36,35.30
2014,08,11,14,37,35.30
2014,08,11,14,38,35.30
2014,08,11,14,39,35.40
2014,08,11,14,40,35.40
2014,08,11,14,41,35.40
2014,08,11,14,42,35.40
2014,08,11,14,43,35.50
2014,08,11,14,44,35.60
2014,08,11,14,45,35.60
2014,08,11,14,46,35.70
2014,08,11,14,47,35.70
2014,08,11,14,48,35.70
2014,08,11,14,49,35.70
2014,08,11,14,51,35.70
2014,08,11,14,52,35.70
2014,08,11,14,53,35.60
2014,08,11,14,54,35.60
2014,08,11,14,55,35.40
2014,08,11,14,56,35.30
2014,08,11,14,57,35.30
2014,08,11,14,59,35.10
2014,08,11,15,00,34.90
2014,08,11,15,01,34.90
2014,08,11,15,02,34.90
2014,08,11,15,03,35.00
2014,08,11,15,04,35.10
2014,08,11,15,05,35.20
2014,08,11,15,06,35.20
2014,08,11,15,07,35.20
2014,08,11,15,08,35.10
2014,08,11,15,09,35.10
2014,08,11,15,10,35.00
2014,08,11,15,11,34.90
2014,08,11,15,12,34.90
2014,08,11,15,13,34.90
2014,08,11,15,14,34.90
2014,08,11,15,15,34.90
2014,08,11,15,16,34.90
2014,08,11,15,17,34.90
2014,08,11,15,18,34.90
2014,08,11,15,19,34.90
2014,08,11,15,20,35.00
2014,08,11,15,21,35.00
2014,08,11,15,22,35.00
2014,08,11,15,23,35.00
2014,08,11,15,24,35.10
2014,08,11,15,25,35.10
2014,08,11,15,26,35.10
2014,08,11,15,28,35.10
2014,08,11,15,29,35.10
2014,08,11,15,30,35.20
2014,08,11,15,31,35.30
2014,08,11,15,32,35.30
2014,08,11,15,33,35.30
2014,08,11,15,34,35.40
2014,08,11,15,35,35.40
2014,08,11,15,36,35.40
2014,08,11,15,37,35.40
2014,08,11,15,38,35.50
2014,08,11,15,39,35.60
2014,08,11,15,40,35.60
2014,08,11,15,41,35.70
2014,08,11,15,42,35.70
2014,08,11,15,43,35.80
2014,08,11,15,44,35.80
2014,08,11,15,45,35.80
2014,08,11,15,46,35.80
2014,08,11,15,47,35.80
2014,08,11,15,48,35.80
2014,08,11,15,49,35.80
2014,08,11,15,50,35.70
2014,08,11,15,51,35.70
2014,08,11,15,52,35.80
2014,08,11,15,53,35.80
2014,08,11,15,54,35.80
2014,08,11,15,55,35.90
2014,08,11,15,56,35.80
2014,08,11,15,57,35.80
2014,08,11,15,58,35.80
2014,08,11,15,59,35.80
2014,08,11,16,01,35.70
2014,08,11,16,02,35.60
2014,08,11,16,03,35.60
2014,08,11,16,04,35.60
2014,08,11,16,05,35.60
2014,08,11,16,06,35.60
2014,08,11,16,07,35.60
2014,08,11,16,08,35.60
2014,08,11,16,09,35.60
2014,08,11,16,10,35.50
2014,08,11,16,11,35.40
2014,08,11,16,12,35.30
2014,08,11,16,13,35.20
2014,08,11,16,15,35.10
2014,08,11,16,16,35.10
2014,08,11,16,17,35.10
2014,08,11,16,18,35.10
2014,08,11,16,19,35.00
2014,08,11,16,20,35.00
2014,08,11,16,21,34.90
2014,08,11,16,22,34.90
2014,08,11,16,23,34.90
2014,08,11,16,24,34.90
2014,08,11,16,25,34.90
2014,08,11,16,26,34.90
2014,08,11,16,27,34.90
2014,08,11,16,28,35.00
2014,08,11,16,29,35.00
2014,08,11,16,31,35.10
2014,08,11,16,32,35.10
2014,08,11,16,33,35.10
2014,08,11,16,34,35.10
2014,08,11,16,35,35.10
2014,08,11,16,36,35.10
2014,08,11,16,37,35.10
2014,08,11,16,38,35.10
2014,08,11,16,40,35.10
2014,08,11,16,41,35.10
2014,08,11,16,42,35.00
2014,08,11,16,43,35.00
2014,08,11,16,44,34.90
2014,08,11,16,45,35.00
2014,08,11,16,46,35.00
2014,08,11,16,47,35.10
2014,08,11,16,48,35.10
2014,08,11,16,49,35.10
2014,08,11,16,50,35.10
2014,08,11,16,51,35.10
2014,08,11,16,52,35.10
2014,08,11,16,53,35.00
2014,08,11,16,54,35.00
2014,08,11,16,55,34.90
2014,08,11,16,56,34.90
2014,08,11,16,57,34.90
2014,08,11,16,58,34.90
2014,08,11,16,59,34.90
2014,08,11,17,00,35.00
2014,08,11,17,01,35.10
2014,08,11,17,02,35.10
2014,08,11,17,03,35.20
2014,08,11,17,04,35.20
2014,08,11,17,05,35.20
2014,08,11,17,06,35.20
2014,08,11,17,07,35.30
2014,08,11,17,08,35.30
2014,08,11,17,09,35.40
2014,08,11,17,10,35.40
2014,08,11,17,11,35.40
2014,08,11,17,12,35.40
2014,08,11,17,13,35.40
2014,08,11,17,14,35.50
2014,08,11,17,15,35.40
2014,08,11,17,16,35.40
2014,08,11,17,17,35.40
2014,08,11,17,18,35.30
2014,08,11,17,19,35.30
2014,08,11,17,20,35.30
2014,08,11,17,21,35.20
2014,08,11,17,22,35.20
2014,08,11,17,23,35.20
2014,08,11,17,24,35.20
2014,08,11,17,25,35.20
2014,08,11,17,26,35.10
2014,08,11,17,27,35.00
2014,08,11,17,28,34.90
2014,08,11,17,29,34.90
2014,08,11,17,30,34.80
2014,08,11,17,31,34.70
2014,08,11,17,32,34.70
2014,08,11,17,33,34.60
2014,08,11,17,34,34.50
2014,08,11,17,35,34.50
2014,08,11,17,36,34.40
2014,08,11,17,37,34.40
2014,08,11,17,38,34.30
2014,08,11,17,39,34.30
2014,08,11,17,40,34.20
2014,08,11,17,41,34.20
2014,08,11,17,42,34.20
2014,08,11,17,43,34.10
2014,08,11,17,44,34.10
2014,08,11,17,45,34.10
2014,08,11,17,46,34.00
2014,08,11,17,47,34.00
2014,08,11,17,48,33.90
2014,08,11,17,49,33.90